Location: Frankfurt am Main
(50.1109°N, 8.6821°E)
Time: 06:26:22
(UTC+01:00)

NOAA 18 - Visible Passes

Search period start: 28 January 2022 00:00
Search period end: 07 February 2022 00:00
Orbit: 840 x 860 km, 99.0° (Epoch: 27 January)

Date Brightness Start Highest point End Pass type
(mag) Time Alt. Az. Time Alt. Az. Time Alt. Az.
29 Jan 7.7 20:51:56 10° N 20:51:56 10° N 20:52:01 10° N visible
30 Jan 7.6 20:39:42 11° N 20:39:42 11° N 20:39:53 10° N visible
31 Jan 7.6 20:27:28 11° N 20:27:28 11° N 20:27:42 10° N visible
01 Feb 7.5 20:15:14 11° NNE 20:15:14 11° NNE 20:15:29 10° N visible
02 Feb 7.5 20:03:00 11° NNE 20:03:00 11° NNE 20:03:11 10° NNE visible
02 Feb 7.9 21:44:59 11° NNW 21:44:59 11° NNW 21:45:11 10° NNW visible
03 Feb 7.5 19:50:45 10° NNE 19:50:45 10° NNE 19:50:46 10° NNE visible
03 Feb 7.8 21:32:44 12° N 21:32:44 12° N 21:33:10 10° N visible
04 Feb 7.6 21:20:30 13° N 21:20:30 13° N 21:21:07 10° N visible
05 Feb 7.5 21:08:15 14° N 21:08:15 14° N 21:09:03 10° N visible
06 Feb 7.4 20:56:01 15° N 20:56:01 15° N 20:56:57 10° N visible
